Regional Weather Roundup
Issued by NWS

Home | Current Version | Previous Version | Text Only | Print | Product List | Glossary Off
Versions: 1 2 3 4 5 6 7 8 9 10 11 12 13 14 15 16 17 18 19 20 21 22 23 24 25 26 27 28 29 30 31 32 33 34 35 36 37 38 39 40 41 42 43 44 45 46 47 48 49 50

000
ASUS45 KSLC 050910
RWRUT

UTAH REGIONAL WEATHER ROUNDUP
NATIONAL WEATHER SERVICE SALT LAKE CITY UT
200 AM MST MON DEC 05 2016

UTZ001>011-023>025-051000-

NORTHERN UTAH

CITY           SKY/WX    TMP DP  RH WIND       PRES   REMARKS
BRIGHAM CITY     N/A     38  27  63 NW17      29.80R WCI  29
HILL AFB       CLOUDY    42  23  47 W14       29.76S
LOGAN          CLOUDY   N/A N/A N/A NW10      29.79R
OGDEN          CLOUDY    42  23  46 W8        29.76R
SALT LAKE CITY CLOUDY    44  24  45 SE5       29.75F
TOOELE VALLEY  CLOUDY    50  27  40 W15G22    29.76S
WENDOVER       PTCLDY    45  21  39 NW15G24   29.82R
HEBER CITY     CLOUDY    37  23  56 NE5       29.73F WCI  34
WEST JORDAN    CLOUDY    39  30  70 W5        29.77R

$$

UTZ011>015-024>027-051000-

CENTRAL/NORTHEAST UTAH

CITY           SKY/WX    TMP DP  RH WIND       PRES   REMARKS
PROVO AIRPORT  CLOUDY    35  26  69 N6        29.78F WCI  30
MOAB/CANYONLAN PTCLDY    27  18  69 NW5       29.88F WCI  22
DELTA          CLOUDY    37  16  41 S6        29.82S WCI  33
PRICE          CLOUDY    27  14  58 CALM      29.86F
ROOSEVELT      CLOUDY    27  18  69 SW5       29.82F WCI  21
VERNAL         CLOUDY    21  14  74 CALM      29.79F

$$

UTZ013>016-019>022-027-051000-

SOUTHERN UTAH

CITY           SKY/WX    TMP DP  RH WIND       PRES   REMARKS
BRYCE CANYON   PTCLDY    13   8  81 SW3       29.93F
CEDAR CITY     PTCLDY    38  11  32 SW5       29.90F WCI  34
MILFORD        MOCLDY    37  12  35 SW18      29.87F WCI  27
ST GEORGE      CLOUDY    34  18  51 CALM      29.99R
HANKSVILLE     PTCLDY    21  16  79 CALM      29.92F
BLANDING       CLEAR     25  14  64 CALM      30.04S

$$

REGIONAL REPORTS     COLORADO/ARIZONA

CITY           SKY/WX    TMP DP  RH WIND       PRES   REMARKS
CRAIG, CO      CLOUDY    36  16  44 SW13      29.73F WCI  27
GRAND JUNCTION CLOUDY    27  20  75 E6        29.88F WCI  20
RIFLE, CO      CLOUDY    27  21  78 S5        29.87F WCI  22
MONTROSE, CO   CLOUDY    27  19  72 CALM      29.90F
CORTEZ, CO     CLOUDY    19  15  84 E5        29.97F WCI  12
COLORADO CITY    N/A     28  21  74 CALM      29.99F
PAGE, AZ       CLEAR     33  17  51 CALM      29.95S
GRAND CANYON   PTCLDY    20  17  88 NE6       30.01F WCI  12
KINGMAN, AZ    MOCLDY    40  13  33 SE7       29.94F
FLAGSTAFF, AZ  MOCLDY    26  16  65 CALM      30.03F

$$

REGIONAL REPORTS    NEVADA/IDAHO/WYOMING

CITY           SKY/WX    TMP DP  RH WIND       PRES   REMARKS
LAS VEGAS, NV  MOCLDY    45  16  31 W3        29.91F
ELY, NY        CLOUDY    33  18  53 SE3       29.91F
ELKO, NV       CLOUDY    33  25  72 SW8       29.92R WCI  26
POCATELLO, ID  CLOUDY    28  24  85 SW32G41   29.81R WCI  12
BURLEY, ID     FLURRIES  26  19  74 W20G36    29.89R WCI  12
FORT BRIDGER,  FLURRIES  32  32 100 W17       29.73F WCI  21
EVANSTON, WY   CLOUDY    30  24  78 SW18G26   29.71F WCI  18
ROCK SPRINGS,  CLOUDY    31  26  82 W25G32    29.68F WCI  17
KEMMERER, WY   FLURRIES  28  27  93 SW16G23   29.67F WCI  17

$$



USA.gov is the U.S. government's official web portal to all federal, state and local government web resources and services.